Tracking 25656 objects as of 21-May-2022
HD Live streaming from Space Station
objects crossing your sky now

ONEWEB-0224

Track ONEWEB-0224 now!
10-day predictions
ONEWEB-0224 is classified as:


NORAD ID: 48794
Int'l Code: 2021-045AD
Perigee: 1,207.4 km
Apogee: 1,210.5 km
Inclination: 87.9 °
Period: 109.5 minutes
Semi major axis: 7579 km
RCS: Unknown
Launch date: May 28, 2021
Source: United Kingdom (UK)
Launch site: VOSTOCHNY COSMODROME (VOSTO)
aabbcc
Your satellite tracking list
Your tracking list is empty




NASA's NSSDC Master Catalog

Two Line Element Set (TLE):
1 48794U 21045AD  22141.58335648  .00036085  00000-0  95460-1 0  9993
2 48794  87.9103 195.1013 0002022 111.6040 347.8791 13.15535184  1300
Source of the keplerian elements: AFSPC